sat.trackr.live / text

‹ back to catalog

STARLINK-30537

NORAD 57991 · 2023-153A

PAYLOAD ACTIVE UNKNOWN

§ Identity

Operator
Country
US
Launch date
2023-10-05
Launch site
AFETR
Launch vehicle
Mass (kg)
RCS (m²)

Purposes: comms

External: N2YO · Heavens-Above · Gunter

§ Orbital elements

Epoch: 2026-09-20T02:59:25.183392Z

Period
94.27 min
Inclination
43.0055°
Eccentricity
0.0001864
Mean motion
15.27573335 rev/d
Perigee alt
481.8 km
Apogee alt
484.3 km
Semi-major
6,861.2 km
B*
-9.6136e-6
RAAN
48.9098°
Arg perigee
260.8067°
Mean anomaly
99.2574°
Rev number
16,453

§ Raw data

STARLINK-305371 57991U 23153A   26263.12459703 -.00000527  00000+0 -96136-5 0  99902 57991  43.0055  48.9098 0001864 260.8067  99.2574 15.27573335164532

JSON: /api/v1/satellites/57991 · /tle

For live sub-satellite position, see the globe view (requires WebGL).

§ Visibility from observer

Set your observer location to see the next 7 days of passes ≥ 10°. The values pass through the URL so the page stays shareable.

No JS? Fill the form by hand. The geolocation button needs JavaScript.